User: anonymous   Login
Location: French Creek State Gamelands
(40.1750°N, 75.7969°W)
Time: 10:16:59
(UTC-04:00)
Language:

ISS - Orbit

View from above orbital plane
View from above orbital plane
View from above satellite
View from above satellite

Ground track
Ground track

The orbit data is extracted from the following two-line orbital elements,

1 25544U 98067A   16243.98141065  .00001969  00000-0  36689-4 0  9991
2 25544  51.6453  44.8198 0002807 263.6146 241.3940 15.54349848 16624
Epoch (UTC): 30 August 2016 23:33:13
Eccentricity: 0.0002807
inclination: 51.6453°
perigee height: 402 km
apogee height: 406 km
right ascension of ascending node: 44.8198°
argument of perigee: 263.6146°
revolutions per day: 15.54349848
mean anomaly at epoch: 241.3940°
orbit number at epoch: 1662

The dashed part of the orbit path shows where the satellite is in the earth's shadow,  

DLR